{"data":{"norad_id":68339,"epoch":"2026-09-20T00:07:21.021888Z","epoch_age_seconds":90363,"freshness":"FRESH","line1":"1 68339U 26059U   26263.00510442  .00008710  00000+0  26862-3 0  9998","line2":"2 68339  53.1587 163.7321 0001210  98.3629 261.7511 15.34399469 27953","mean_motion":15.34399469,"eccentricity":0.000121,"inclination_deg":53.1587,"raan_deg":163.7321,"arg_perigee_deg":98.3629,"mean_anomaly_deg":261.7511,"bstar":0.00026862,"rev_number":2795,"period_min":93.84779055864,"perigee_km":461.87707659143,"apogee_km":463.5325603115,"semimajor_km":6840.8418184515,"source":"CELESTRAK","updated_at":"2026-09-20T09:00:43.888224Z"}}